Overview Statistics Trail Chart Weather Telemetry Raw packets
 

This is the latest recevied weather packets stored in our database for station/object KK7MLS-13. If no packets are shown the sender has not sent any weather packets the latest 10 day(s).

<< 33 34 35 36 37 38 39 >>
Time Temp. Humidity Pressure Rain* Wind** Luminosity Snow
1788453559 13.33° C 95% 1010.8 hPa 0 mm - 116 W/m² -
1788453256 12.78° C 96% 1010.7 hPa 0 mm - 204 W/m² -
1788452952 12.78° C 96% 1010.8 hPa 0 mm - 91 W/m² -
1788452648 12.78° C 95% 1010.8 hPa 0 mm - 84 W/m² -
1788452343 12.22° C 96% 1010.8 hPa 0 mm - 69 W/m² -
1788452038 12.22° C 95% 1010.7 hPa 0 mm - 42 W/m² -
1788451734 12.22° C 95% 1010.7 hPa 0 mm - 45 W/m² -
1788451433 12.22° C 95% 1010.7 hPa 0 mm - 30 W/m² -
1788451131 12.22° C 95% 1010.7 hPa 1.78 mm - 49 W/m² -
1788450827 12.22° C 96% 1010.7 hPa 3.05 mm - 34 W/m² -
1788450522 12.22° C 95% 1010.8 hPa 3.05 mm - 29 W/m² -
1788450233 12.22° C 95% 1010.9 hPa 3.05 mm - 30 W/m² -
1788449913 12.22° C 95% 1010.7 hPa 1.27 mm - 35 W/m² -
1788449609 12.22° C 95% 1011 hPa 0 mm - 29 W/m² -
1788449305 12.22° C 95% 1010.7 hPa 1.78 mm - 35 W/m² -
1788449001 12.22° C 95% 1010.9 hPa 1.78 mm - 35 W/m² -
1788448696 12.22° C 95% 1010.7 hPa 0 mm - 18 W/m² -
1788448392 12.22° C 95% 1010.7 hPa 1.27 mm - 25 W/m² -
1788448092 12.22° C 95% 1010.8 hPa 1.27 mm - 27 W/m² -
1788447791 12.22° C 95% 1010.5 hPa 0 mm - 21 W/m² -
1788447487 12.22° C 95% 1010.6 hPa 1.78 mm - 18 W/m² -
1788447182 12.22° C 95% 1010.5 hPa 1.78 mm - 16 W/m² -
1788446881 12.22° C 95% 1010.7 hPa 0 mm - 17 W/m² -
1788446577 12.22° C 95% 1010.4 hPa 0 mm - 17 W/m² -
1788446272 12.22° C 95% 1010.4 hPa 1.27 mm - 12 W/m² -

* Rain latest hour (hover to see other rain measurements)
** Current wind speed in m/s (hover to see current wind gust speed)